Location: Kessock
(57.5000°N, 4.2500°W)
Time: 12:43:43
(UTC+00:00)

Daily predictions for brighter satellites

Satellite Brightness Start Highest point End
(mag) Time Altitude Azimuth Time Altitude Azimuth Time Altitude Azimuth
NOAA 11 4.2 17:07:38 10° SSE 17:13:05 66° ENE 17:18:33 10° NNW
AQUARIUS 4.2 17:09:19 10° SSE 17:13:46 68° ENE 17:18:16 10° NNW
USA 290 3.0 17:15:11 10° NNW 17:18:06 31° NE 17:21:00 10° ESE
Okean 1-7 Rocket 4.1 17:16:05 10° SSE 17:20:23 42° E 17:24:43 10° NNE
PAYLOAD B 4.5 17:15:25 10° SSE 17:20:57 80° WSW 17:26:33 10° NNW
Cosmos 1833 Rocket 2.8 17:16:05 10° NW 17:21:40 58° NE 17:27:12 10° SE
Cosmos 2221 4.5 17:23:43 10° NNE 17:24:50 11° NE 17:25:57 10° ENE
NOSS 2-2 (C) 4.2 17:21:14 10° WNW 17:25:30 50° NNE 17:31:13 10° E
Elektron 1 4.0 17:22:18 10° W 17:25:33 60° NNW 17:28:25 10° ENE
Cosmos 2344 4.2 17:19:01 10° WNW 17:27:31 88° NE 17:39:12 10° SE
Cosmos 1777 Rocket 4.1 17:23:20 10° SSW 17:28:38 83° ESE 17:33:59 10° NNE
H-2A R/B 2.7 17:24:38 10° NNE 17:28:46 37° E 17:32:47 10° SSE
Envisat 4.1 17:24:25 10° S 17:29:22 51° W 17:34:22 10° NNW
USA 229 DEB 4.1 17:22:21 10° NW 17:29:30 80° SW 17:37:05 10° SE
USA 229 4.1 17:22:28 10° NW 17:29:36 80° SW 17:37:12 10° SE
Cosmos 389 Rocket 4.4 17:28:31 10° NNE 17:30:09 13° NE 17:31:46 10° E
H-2A R/B 2.8 17:27:06 10° ESE 17:31:35 31° NE 17:36:13 10° N
CZ-3B R/B 2.7 17:30:24 10° W 17:32:23 33° SSW 17:36:14 10° SE
SeaSat 1 2.5 17:28:29 10° NE 17:33:26 70° ESE 17:38:22 10° SSW
Cosmos 1939 Rocket 3.0 17:29:32 10° SE 17:33:30 53° ENE 17:37:25 10° N
Helios 1A Rocket 4.1 17:30:48 10° ESE 17:34:03 23° NE 17:37:19 10° N
SL-14 R/B 4.3 17:30:21 10° SSW 17:34:11 49° WNW 17:38:05 10° N
Cosmos 2112 Rocket 4.1 17:29:13 10° NNW 17:34:30 86° WSW 17:39:43 10° SSE
Cosmos 44 4.3 17:30:39 10° S 17:35:00 32° ESE 17:39:31 10° ENE
NOSS 3-4 (A) 3.9 17:30:35 10° W 17:36:38 56° NNW 17:43:11 11° ENE
NOSS 3-4 (C) 3.9 17:30:41 10° W 17:36:45 56° NNW 17:43:17 11° ENE
SJ 16-02 1.5 17:34:23 10° S 17:38:39 53° ESE 17:42:57 10° NE
Feng Yun 1-1 Rocket 4.3 17:33:38 10° SE 17:39:04 61° ENE 17:44:43 10° NNW
Aureole 3 Rocket 3.1 17:37:09 10° N 17:39:59 31° ENE 17:43:12 10° SE
COSMOS 2406 3.2 17:35:15 10° NW 17:41:05 78° NE 17:46:52 10° SE
Cosmos 2082 Rocket 2.4 17:35:49 10° NNW 17:41:26 51° NE 17:46:59 10° ESE
FengYun 1-2 T 4.4 17:36:16 10° SSE 17:41:54 86° WSW 17:47:36 10° NNW
YAOGAN 1 3.3 17:39:09 10° ESE 17:42:59 31° ENE 17:46:49 10° N
Cosmos 1844 Rocket 2.8 17:38:04 10° SSW 17:43:38 62° ESE 17:49:12 10° NE
Cosmos 1892 Rocket 3.5 17:39:38 10° S 17:43:58 88° ESE 17:48:21 10° NNE
Cosmos 1818 3.7 17:39:22 10° SSW 17:44:45 62° SE 17:49:56 11° NE
H-2A R/B 3.3 17:40:46 10° S 17:44:56 59° WSW 17:49:18 10° NNW
NOSS 3-1 (A) 4.2 17:38:01 10° NW 17:45:04 77° SW 17:53:26 10° SE
Cosmos 1844 3.9 17:42:09 10° SSW 17:47:42 56° ESE 17:53:21 10° NE
NOSS 2-2 (E) 4.1 17:44:15 10° WNW 17:48:50 62° NNE 17:55:06 10° ESE
Cosmos 1812 Rocket 3.6 17:44:43 10° N 17:49:06 59° ENE 17:53:24 10° SSE
Cosmos 1703 3.8 17:46:35 10° SSE 17:50:08 35° E 17:53:42 10° NNE
Meteor 2-1 Rocket 4.4 17:45:13 10° NNW 17:50:48 78° WSW 17:56:18 10° S
ISS -2.2 17:47:56 10° SW 17:50:54 28° S 17:53:50 10° ESE
IRS-1C Rocket 4.1 17:47:24 10° SE 17:52:33 58° ENE 17:57:43 10° NNW
ATLAS 2AS CENTAUR R/B 3.3 17:46:24 10° W 17:54:13 60° NNW 18:00:54 13° ENE
Cosmos 2227 Rocket 3.8 17:51:32 10° WNW 17:56:06 24° NNW 18:00:41 10° NE
ATLAS 5 CENTAUR R/B 2.1 17:52:19 10° W 17:56:38 55° NNW 18:00:57 14° NE
Iridium 4 Rocket 3.8 17:51:59 10° N 17:57:21 46° ENE 18:02:14 10° SSE
Okean O Rocket 2.2 17:53:57 10° S 17:58:20 62° WSW 18:02:43 10° NNW
ERS-2 3.6 17:58:38 17° ENE 17:59:31 18° E 18:02:04 10° SE
SKYMED 2 4.2 17:55:36 10° NNE 17:59:36 34° E 18:03:34 10° SSE
CZ-4 R/B 1.6 17:58:41 10° SE 18:02:30 45° ENE 18:06:17 10° N
S3M 4.4 17:59:24 10° N 18:05:04 37° ENE 18:10:43 10° SE
ADEOS Rocket 4.0 18:00:32 10° N 18:06:10 44° WNW 18:11:24 10° SW
CZ-4C R/B 2.9 18:00:30 10° W 18:06:12 53° N 18:11:46 16° ENE
CSL-04 Rocket 4.1 18:02:06 10° SE 18:07:12 41° ENE 18:12:22 10° N
Meteor 2-13 Rocket 4.4 18:02:19 10° S 18:08:27 78° E 18:14:38 10° NNE
Okean-O 2.7 18:05:45 10° SE 18:10:03 52° ENE 18:14:23 10° N
USA 234 3.3 18:05:52 15° E 18:11:32 85° S 18:18:06 10° W
Aureole 2 Rocket 3.2 18:09:12 10° SW 18:12:11 43° NW 18:15:10 10° NNE
Ariane Rocket 4.2 18:11:25 18° ENE 18:13:17 22° NE 18:17:07 10° N
Cosmos 1340 2.9 18:09:58 10° S 18:13:32 44° E 18:17:09 10° NNE
Cosmos 1346 Rocket 3.9 18:11:05 10° SE 18:14:15 23° E 18:15:11 21° ENE
Cosmos 2278 Rocket 3.1 18:09:33 10° SSE 18:14:15 28° ESE 18:17:11 18° ENE
APEX 4.5 18:07:43 10° SW 18:14:17 75° NW 18:19:29 11° NE
CZ-2C R/B 3.3 18:13:08 10° SSE 18:18:45 88° ENE 18:24:35 10° NNW
Cosmos 405 2.9 18:15:52 10° NNW 18:19:25 89° WSW 18:22:57 10° SSE
Cosmos 2297 Rocket 3.9 18:15:10 10° WNW 18:19:29 22° N 18:23:18 12° NE
Cosmos 1455 3.9 18:16:19 10° NNW 18:19:53 37° W 18:23:28 10° SSW
Genesis I 3.7 18:16:52 10° NW 18:20:38 42° NNE 18:22:29 25° E
USA 281 4.3 18:17:58 18° ENE 18:21:27 27° NNE 18:26:48 10° NNW
COSMOS 2455 3.1 18:16:19 10° SW 18:22:22 71° NW 18:27:33 15° NE
NOSS 2-1 (E) 3.7 18:22:36 10° SSW 18:25:41 35° SE 18:26:47 28° E
Cosmos 1842 Rocket 4.5 18:22:39 10° N 18:26:26 27° ENE 18:27:18 25° E
CZ-4C R/B 4.1 18:23:41 10° N 18:26:41 39° WNW 18:29:42 10° SW
Cosmos 1869 3.8 18:23:56 10° N 18:27:33 35° ENE 18:30:10 16° SE
NOSS 2-2 (D) 4.0 18:23:42 10° NW 18:28:21 75° NNE 18:33:29 16° ESE
Cosmos 1627 Rocket 4.5 18:23:44 10° S 18:29:53 63° E 18:36:09 10° NNE
Cosmos 1626 Rocket 3.6 18:25:49 10° SSW 18:30:15 88° W 18:34:45 10° NNE
RESURS DK-1 4.4 18:28:42 10° WNW 18:31:49 20° NNW 18:34:37 11° NNE
ARGOS 3.2 18:26:59 10° SE 18:32:15 59° ENE 18:37:34 10° NNW
Cosmos 468 4.4 18:29:17 10° NNW 18:34:32 69° ENE 18:39:48 10° SE
CZ-4B R/B 1.2 18:32:07 15° NNE 18:34:49 69° ESE 18:38:03 10° S
CZ-2C R/B 3.6 18:33:46 22° ENE 18:35:34 26° E 18:40:10 10° SE
Cosmos 1898 Rocket 3.4 18:31:49 10° SSW 18:37:01 70° ESE 18:41:26 15° NE
Cosmos 2263 Rocket 3.5 18:32:28 10° W 18:37:33 33° NNW 18:42:20 11° NNE
Cosmos 494 Rocket 4.0 18:33:24 10° NNW 18:38:30 56° NE 18:42:29 16° SE
Cosmos 1092 Rocket 3.9 18:32:35 10° S 18:38:45 82° E 18:44:56 10° NNE
Cosmos 1328 3.6 18:36:53 10° S 18:40:52 80° E 18:44:50 10° NNE
MOS 1 Rocket 3.0 18:38:17 10° NNE 18:42:34 65° ESE 18:46:52 10° S
CZ-2D R/B 4.2 18:39:18 10° S 18:43:02 51° W 18:46:48 10° NNW
Cosmos 1048 Rocket 3.8 18:38:24 10° NNW 18:43:34 77° ENE 18:48:44 10° SE
Cosmos-2242 3.0 18:39:43 10° NNW 18:44:02 82° WSW 18:48:21 10° S
Nadezhda 4 Rocket 4.4 18:41:28 10° SSW 18:47:36 63° WNW 18:53:44 10° N
COSMO-SKYMED 1 2.5 18:43:29 10° NNE 18:47:52 83° ESE 18:52:14 10° SSW
USA 290 4.2 18:49:37 10° NW 18:52:28 30° WSW 18:55:19 10° S
Meteor 1-11 4.1 18:48:28 10° S 18:54:05 67° E 18:59:39 10° NNE
Cosmos 909 Rocket 4.2 18:50:13 10° NW 18:56:30 63° NNE 19:00:09 29° ESE
Cosmos 1758 Rocket 3.5 18:52:30 10° S 18:56:59 77° E 19:01:30 10° NNE
Resurs 01 Rocket 3.6 19:00:28 15° NNE 19:00:28 15° NNE 19:01:48 10° N
Cosmos 1937 Rocket 3.4 18:54:16 10° SSW 18:59:35 77° ESE 19:03:18 20° NNE
NOSS 6 (F) 4.5 18:56:48 10° NW 18:59:44 85° NNE 18:59:52 81° E
Cosmos 2098 Rocket 4.2 18:53:55 10° S 19:01:23 81° E 19:08:18 10° NNE
Cosmos 2221 2.7 18:59:18 10° N 19:03:34 47° ENE 19:03:42 47° ENE
SL-08 RB Rocket 3.5 18:59:22 10° SSE 19:03:50 70° ENE 19:08:18 10° NNW
H-2A R/B 3.4 19:00:38 10° N 19:04:47 39° WNW 19:08:49 10° SW
Cosmos 1833 Rocket 4.0 19:00:16 10° NW 19:05:29 40° WSW 19:10:40 10° S
Cosmos 389 Rocket 2.3 19:01:55 10° NNW 19:05:30 79° ENE 19:05:55 65° SE
CSL-04 Debris 4.1 19:00:43 10° SSE 19:06:07 86° WSW 19:11:34 10° NNW
Helios 1A Rocket 3.2 19:04:44 10° S 19:08:52 68° WSW 19:13:01 10° NNW
H-2A R/B 2.5 19:05:41 10° S 19:10:45 63° WSW 19:16:01 10° NNW
SeaSat 1 3.7 19:07:01 14° NNE 19:10:45 36° NW 19:15:16 10° WSW
Cosmos 1602 Rocket 4.4 19:09:40 10° SSW 19:13:55 50° WNW 19:18:16 10° N
NOSS 2-1 (C) 2.9 19:11:20 10° SW 19:14:40 84° SSE 19:14:40 84° SSE
Cosmos 44 3.5 19:10:54 10° WSW 19:15:54 77° NW 19:17:57 38° NE
NOSS 2-2 (C) 4.3 19:11:35 10° WNW 19:16:26 74° SW 19:20:07 26° SE
Cosmos 2266 Rocket 4.1 19:11:07 10° SSE 19:17:00 47° E 19:22:49 10° NNE
SJ 16-02 3.0 19:13:32 10° WSW 19:17:29 31° NW 19:20:52 13° NNE
YAOGAN 1 3.6 19:14:47 10° S 19:18:58 47° W 19:23:11 10° NNW
NOSS 2-1 (D) 3.0 19:17:17 10° SW 19:20:27 80° WSW 19:20:27 80° WSW
Cosmos 2026 Rocket 4.3 19:16:35 10° SSW 19:22:44 70° WNW 19:29:03 10° N
HJ-1C 4.1 19:20:23 17° S 19:22:46 52° W 19:26:05 10° NNW
SPOT 3 Rocket 4.5 19:24:53 31° NNE 19:24:53 31° NNE 19:28:28 10° N
Cosmos 1553 Rocket 4.5 19:17:57 10° NNW 19:24:17 63° W 19:30:32 10° S
Cosmos 2082 Rocket 3.1 19:20:05 10° NW 19:25:34 48° WSW 19:31:01 10° S
In-Cosmos 22 Rocket 4.2 19:20:55 10° S 19:26:32 56° E 19:29:34 27° NNE
ISS -2.0 19:24:16 10° WSW 19:26:49 26° SSW 19:26:49 26° SSW
Cosmos 1844 Rocket 3.7 19:22:27 10° WSW 19:27:49 42° NW 19:31:30 19° NNE
Cosmos 1269 Rocket 3.9 19:22:56 10° NNW 19:28:14 66° NE 19:29:03 58° ESE
NOSS 3-4 (A) 3.9 19:22:09 10° WNW 19:28:29 57° NNE 19:30:38 41° ENE
Cosmos 1818 4.1 19:23:10 10° WSW 19:28:32 53° NNW 19:30:35 34° NNE
NOSS 3-4 (C) 3.9 19:22:16 10° WNW 19:28:35 57° NNE 19:30:44 41° ENE
Cosmos 1825 Rocket 3.7 19:24:26 10° SSW 19:28:50 76° WNW 19:32:30 15° N
SJ-6B 4.0 19:34:48 33° N 19:34:48 33° N 19:37:10 10° N
ERS-2 2.5 19:33:12 60° NW 19:33:25 62° WNW 19:37:00 10° SSW
CZ-4 R/B 3.5 19:34:16 10° SSW 19:37:42 27° W 19:41:06 10° NW
MetOp-A 4.0 19:37:46 38° SSE 19:39:56 85° ENE 19:45:21 10° NNW
ATLAS 5 CENTAUR R/B 2.5 19:37:29 10° WNW 19:42:01 44° N 19:42:29 43° NNE
Cosmos 2227 Rocket 3.7 19:37:43 10° NW 19:42:06 22° N 19:42:53 21° NNE
Meteor 2-21 4.3 19:36:30 10° S 19:42:31 64° E 19:48:37 10° NNE
Cosmos 2315 Rocket 3.8 19:36:48 10° NNW 19:43:05 81° ENE 19:46:33 28° SSE
Cosmos 883 Rocket 4.4 19:37:38 10° NNW 19:43:55 88° WSW 19:50:05 10° S
ATLAS 2AS CENTAUR R/B 3.2 19:38:36 10° WNW 19:46:19 58° NNE 19:48:21 45° ENE
Cosmos 1346 Rocket 3.6 19:46:31 10° SW 19:50:21 49° WNW 19:50:46 47° NW
Meteor 2-14 Rocket 4.3 19:44:29 10° S 19:50:31 69° E 19:56:36 10° NNE
Ariane Rocket 2.8 19:51:36 83° E 19:51:38 84° ENE 19:56:46 10° NNW
IRS-1A Rocket 4.3 19:51:15 47° SSE 19:53:05 87° ENE 19:58:58 10° NNW
USA 234 3.2 19:53:12 56° ESE 19:54:45 81° SSW 20:01:21 10° W
Cosmos 1953 Rocket 3.9 19:51:05 10° SSW 19:55:15 63° W 19:55:15 63° W
CZ-4C R/B 2.8 19:49:27 10° WNW 19:55:43 60° NNE 19:56:57 53° ENE
Cosmos 2251 Rocket 4.4 19:50:50 10° NNW 19:54:43 37° NNE 19:54:43 37° NNE
Cosmos 2278 Rocket 2.2 19:52:09 10° SW 19:57:51 80° NW 19:59:05 56° NNE
Genesis I 4.3 19:54:29 10° NW 19:57:23 43° W 19:57:23 43° W
Cosmos 1655 Rocket 3.9 19:53:57 10° SSW 20:00:11 85° WNW 20:06:28 10° NNE
Cosmos 1842 Rocket 4.2 20:00:18 10° NNW 20:04:31 54° W 20:04:31 54° W
USA 281 3.2 20:04:50 60° NE 20:05:01 60° NE 20:11:29 10° NNW
Cosmos 2297 Rocket 3.6 20:00:49 10° NW 20:05:07 25° NNE 20:05:07 25° NNE
CZ-4B R/B 4.3 20:05:12 13° NNW 20:06:36 16° NW 20:08:41 10° W
COSMOS 2455 3.9 20:03:37 10° W 20:09:12 37° NNW 20:10:42 32° NNE
CZ-2C R/B 2.8 20:10:51 10° NNE 20:16:26 78° WNW 20:22:04 10° SSW
Cosmos 2263 Rocket 4.0 20:18:57 10° NW 20:23:11 21° N 20:24:02 20° N
Resurs 01 Rocket 4.0 20:38:02 17° NNW 20:38:02 17° NNW 20:39:04 10° NNW
Cosmos 2221 4.4 20:37:11 10° NNW 20:40:36 28° W 20:40:36 28° W
SJ 16-02 4.2 20:55:56 10° NW 20:57:30 12° NNW 20:57:52 11° NNW
NOSS 3-4 (A) 4.3 21:13:12 10° NW 21:18:05 53° WNW 21:18:05 53° WNW
NOSS 3-4 (C) 4.3 21:13:18 10° NW 21:18:10 53° WNW 21:18:10 53° WNW
ATLAS 5 CENTAUR R/B 4.1 21:22:14 10° WNW 21:24:01 23° NW 21:24:01 23° NW
Cosmos 2227 Rocket 4.2 21:22:23 10° NNW 21:24:42 23° NNW 21:24:42 23° NNW
ATLAS 2AS CENTAUR R/B 3.5 21:30:11 10° NW 21:35:47 52° WNW 21:35:47 52° WNW
USA 234 4.4 21:40:33 36° W 21:40:33 36° W 21:44:37 10° WNW
Cosmos 2278 Rocket 4.1 21:37:47 10° W 21:40:58 25° WNW 21:40:58 25° WNW
CZ-4C R/B 3.7 21:37:58 10° NW 21:42:09 43° WNW 21:42:09 43° WNW
USA 281 4.4 21:51:42 37° WNW 21:51:42 37° WNW 21:56:05 10° NW
Cosmos 2297 Rocket 4.4 21:45:09 10° NNW 21:46:55 20° NNW 21:46:55 20° NNW
